owner,sensor,date,latitude,longitude,vertical_datum,direction_of_sea_water_velocity,sea_water_speed,upward_sea_water_velocity,qcFlag 
TABS,ioos:station:wmo:42045:1,2011-08-01T00:00:00Z,26.2168,-96.4998,2.0,294.3331267,5.970360123,-99999.0,'11133222,11111222,99999999' 
TABS,ioos:station:wmo:42045:1,2011-08-01T00:30:00Z,26.2168,-96.4998,2.0,283.769894,7.814582522,-99999.0,'11133222,11111222,99999999' 
TABS,ioos:station:wmo:42045:1,2011-08-01T01:00:00Z,26.2168,-96.4998,2.0,283.8655663,12.18504411,-99999.0,'11111222,11111222,99999999' 
TABS,ioos:station:wmo:42045:1,2011-08-01T01:30:00Z,26.2168,-96.4998,2.0,297.7588966,12.23841902,-99999.0,'11111222,11111222,99999999' 
TABS,ioos:station:wmo:42045:1,2011-08-01T02:00:00Z,26.2168,-96.4998,2.0,290.6728462,10.36752622,-99999.0,'11111222,11111222,99999999' 
TABS,ioos:station:wmo:42045:1,2011-08-01T02:30:00Z,26.2168,-96.4998,2.0,295.3279582,17.60196012,-99999.0,'11111222,11111222,99999999' 
TABS,ioos:station:wmo:42045:1,2011-08-01T03:00:00Z,26.2168,-96.4998,2.0,297.9975028,20.57825308,-99999.0,'11111222,11111222,99999999' 
TABS,ioos:station:wmo:42045:1,2011-08-01T03:30:00Z,26.2168,-96.4998,2.0,301.5770847,21.96165067,-99999.0,'11111222,11111222,99999999' 
TABS,ioos:station:wmo:42045:1,2011-08-01T04:00:00Z,26.2168,-96.4998,2.0,299.2681113,23.23623248,-99999.0,'11111222,11111222,99999999' 
TABS,ioos:station:wmo:42045:1,2011-08-01T04:30:00Z,26.2168,-96.4998,2.0,308.3394974,25.11625768,-99999.0,'11111222,11111222,99999999' 
TABS,ioos:station:wmo:42045:1,2011-08-01T05:00:00Z,26.2168,-96.4998,2.0,323.1207808,35.7420005,-99999.0,'11111222,11111222,99999999' 
TABS,ioos:station:wmo:42045:1,2011-08-01T05:30:00Z,26.2168,-96.4998,2.0,319.1008157,38.7638285,-99999.0,'11111222,11111222,99999999' 
TABS,ioos:station:wmo:42045:1,2011-08-01T06:00:00Z,26.2168,-96.4998,2.0,340.8851301,42.3553692,-99999.0,'11111222,11111222,99999999' 
TABS,ioos:station:wmo:42045:1,2011-08-01T06:30:00Z,26.2168,-96.4998,2.0,341.0742989,47.23351353,-99999.0,'11111222,11111222,99999999' 
TABS,ioos:station:wmo:42045:1,2011-08-01T07:00:00Z,26.2168,-96.4998,2.0,345.2925083,48.8403276,-99999.0,'11111222,11111222,99999999' 
TABS,ioos:station:wmo:42045:1,2011-08-01T07:30:00Z,26.2168,-96.4998,2.0,348.0508268,51.48565334,-99999.0,'11111222,11111222,99999999' 
TABS,ioos:station:wmo:42045:1,2011-08-01T08:00:00Z,26.2168,-96.4998,2.0,351.8273467,51.13939088,-99999.0,'11111222,11111222,99999999' 
TABS,ioos:station:wmo:42045:1,2011-08-01T08:30:00Z,26.2168,-96.4998,2.0,352.5777336,55.42442783,-99999.0,'11111222,11111222,99999999' 
TABS,ioos:station:wmo:42045:1,2011-08-01T09:00:00Z,26.2168,-96.4998,2.0,359.4544579,56.69257182,-99999.0,'11111222,11144222,99999999' 
TABS,ioos:station:wmo:42045:1,2011-08-01T09:30:00Z,26.2168,-96.4998,2.0,4.682171631,52.43496925,-99999.0,'11111222,11111222,99999999' 
TABS,ioos:station:wmo:42045:1,2011-08-01T10:00:00Z,26.2168,-96.4998,2.0,15.6997798,47.70988367,-99999.0,'11111222,11111222,99999999' 
TABS,ioos:station:wmo:42045:1,2011-08-01T10:30:00Z,26.2168,-96.4998,2.0,13.69464976,53.26419623,-99999.0,'11111222,11111222,99999999' 
TABS,ioos:station:wmo:42045:1,2011-08-01T11:00:00Z,26.2168,-96.4998,2.0,25.5294923,43.2973498,-99999.0,'11111222,11111222,99999999' 
TABS,ioos:station:wmo:42045:1,2011-08-01T11:30:00Z,26.2168,-96.4998,2.0,11.93445771,44.63476,-99999.0,'11111222,11111222,99999999' 
TABS,ioos:station:wmo:42045:1,2011-08-01T12:00:00Z,26.2168,-96.4998,2.0,21.04330996,51.07626161,-99999.0,'11111222,11111222,99999999' 
TABS,ioos:station:wmo:42045:1,2011-08-01T12:30:00Z,26.2168,-96.4998,2.0,27.72990573,51.92328187,-99999.0,'11111222,11111222,99999999' 
TABS,ioos:station:wmo:42045:1,2011-08-01T13:00:00Z,26.2168,-96.4998,2.0,28.71163497,47.52295551,-99999.0,'11111222,11111222,99999999' 
TABS,ioos:station:wmo:42045:1,2011-08-01T13:30:00Z,26.2168,-96.4998,2.0,30.72042713,46.41308113,-99999.0,'11111222,11111222,99999999' 
TABS,ioos:station:wmo:42045:1,2011-08-01T14:00:00Z,26.2168,-96.4998,2.0,36.47559038,48.22714277,-99999.0,'11111222,11111222,99999999' 
TABS,ioos:station:wmo:42045:1,2011-08-01T14:30:00Z,26.2168,-96.4998,2.0,43.84088679,43.34037379,-99999.0,'11111222,11111222,99999999' 
TABS,ioos:station:wmo:42045:1,2011-08-01T15:00:00Z,26.2168,-96.4998,2.0,52.43579833,40.59698141,-99999.0,'11111222,11111222,99999999' 
TABS,ioos:station:wmo:42045:1,2011-08-01T15:30:00Z,26.2168,-96.4998,2.0,55.80208444,40.67221656,-99999.0,'11111222,11111222,99999999' 
TABS,ioos:station:wmo:42045:1,2011-08-01T16:00:00Z,26.2168,-96.4998,2.0,63.40189208,38.68398247,-99999.0,'11111222,11111222,99999999' 
TABS,ioos:station:wmo:42045:1,2011-08-01T16:30:00Z,26.2168,-96.4998,2.0,68.42726401,33.50713357,-99999.0,'11111222,11111222,99999999' 
TABS,ioos:station:wmo:42045:1,2011-08-01T17:00:00Z,26.2168,-96.4998,2.0,76.93252503,32.99441165,-99999.0,'11111222,11111222,99999999' 
TABS,ioos:station:wmo:42045:1,2011-08-01T17:30:00Z,26.2168,-96.4998,2.0,81.3696666,33.85332037,-99999.0,'11111222,11111222,99999999' 
TABS,ioos:station:wmo:42045:1,2011-08-01T18:00:00Z,26.2168,-96.4998,2.0,83.97552836,29.06049724,-99999.0,'11111222,11111222,99999999' 
TABS,ioos:station:wmo:42045:1,2011-08-01T18:30:00Z,26.2168,-96.4998,2.0,95.84571575,27.00040926,-99999.0,'11111222,11111222,99999999' 
TABS,ioos:station:wmo:42045:1,2011-08-01T19:00:00Z,26.2168,-96.4998,2.0,95.85753751,19.00925301,-99999.0,'11111222,11111222,99999999' 
TABS,ioos:station:wmo:42045:1,2011-08-01T19:30:00Z,26.2168,-96.4998,2.0,109.9636582,17.66128251,-99999.0,'11111222,11111222,99999999' 
TABS,ioos:station:wmo:42045:1,2011-08-01T20:00:00Z,26.2168,-96.4998,2.0,99.8493202,11.92577461,-99999.0,'11111222,11111222,99999999' 
TABS,ioos:station:wmo:42045:1,2011-08-01T20:30:00Z,26.2168,-96.4998,2.0,119.5229237,7.366478127,-99999.0,'11133222,11111222,99999999' 
TABS,ioos:station:wmo:42045:1,2011-08-01T21:00:00Z,26.2168,-96.4998,2.0,231.923117,3.988884556,-99999.0,'11133222,11111222,99999999' 
TABS,ioos:station:wmo:42045:1,2011-08-01T21:30:00Z,26.2168,-96.4998,2.0,278.88372010865,23.117320346442,-99999.0,'1111122,1111122,1199999999' 
TABS,ioos:station:wmo:42045:1,2011-08-01T22:00:00Z,26.2168,-96.4998,2.0,294.81590596894,19.632880583348,-99999.0,'1111122,1111122,1199999999' 
TABS,ioos:station:wmo:42045:1,2011-08-01T22:30:00Z,26.2168,-96.4998,2.0,300.21285093906,24.601869847636,-99999.0,'1111122,1111122,1199999999' 
TABS,ioos:station:wmo:42045:1,2011-08-01T23:00:00Z,26.2168,-96.4998,2.0,312.25440399184,25.980642794204,-99999.0,'1111122,1111122,1199999999' 
TABS,ioos:station:wmo:42045:1,2011-08-01T23:30:00Z,26.2168,-96.4998,2.0,308.55715841555,26.151338397872,-99999.0,'1111122,1111122,1199999999' 
TABS,ioos:station:wmo:42045:1,2011-08-02T00:00:00Z,26.2168,-96.4998,2.0,314.7442324,30.05940951,-99999.0,'11111222,11111222,99999999' 
TABS,ioos:station:wmo:42045:1,2011-08-02T00:30:00Z,26.2168,-96.4998,2.0,322.4224571,33.99259478,-99999.0,'11111222,11111222,99999999' 
TABS,ioos:station:wmo:42045:1,2011-08-02T01:00:00Z,26.2168,-96.4998,2.0,324.2943677,38.00384191,-99999.0,'11111222,11111222,99999999' 
TABS,ioos:station:wmo:42045:1,2011-08-02T01:30:00Z,26.2168,-96.4998,2.0,333.509199,34.63672184,-99999.0,'11111222,11111222,99999999' 
TABS,ioos:station:wmo:42045:1,2011-08-02T02:00:00Z,26.2168,-96.4998,2.0,323.2659011,26.21607331,-99999.0,'11111222,11111222,99999999' 
TABS,ioos:station:wmo:42045:1,2011-08-02T02:30:00Z,26.2168,-96.4998,2.0,335.2806533,41.8003744,-99999.0,'11111222,11111222,99999999' 
TABS,ioos:station:wmo:42045:1,2011-08-02T03:00:00Z,26.2168,-96.4998,2.0,337.9518703,47.81699384,-99999.0,'11111222,11111222,99999999' 
TABS,ioos:station:wmo:42045:1,2011-08-02T03:30:00Z,26.2168,-96.4998,2.0,339.4614543,50.5641187,-99999.0,'11111222,11111222,99999999' 
TABS,ioos:station:wmo:42045:1,2011-08-02T04:00:00Z,26.2168,-96.4998,2.0,343.2894947,52.44482148,-99999.0,'11111222,11111222,99999999' 
TABS,ioos:station:wmo:42045:1,2011-08-02T04:30:00Z,26.2168,-96.4998,2.0,347.9486843,49.09198102,-99999.0,'11111222,11111222,99999999' 
TABS,ioos:station:wmo:42045:1,2011-08-02T05:00:00Z,26.2168,-96.4998,2.0,343.638565,49.91127828,-99999.0,'11111222,11111222,99999999' 
TABS,ioos:station:wmo:42045:1,2011-08-02T05:30:00Z,26.2168,-96.4998,2.0,346.1645954,57.49827302,-99999.0,'11111222,11111222,99999999' 
TABS,ioos:station:wmo:42045:1,2011-08-02T06:00:00Z,26.2168,-96.4998,2.0,348.3521384,60.47542476,-99999.0,'11111222,11111222,99999999' 
TABS,ioos:station:wmo:42045:1,2011-08-02T06:30:00Z,26.2168,-96.4998,2.0,347.5419932,64.29389784,-99999.0,'11111222,11111222,99999999' 
TABS,ioos:station:wmo:42045:1,2011-08-02T07:00:00Z,26.2168,-96.4998,2.0,353.8867001,61.69084616,-99999.0,'11111222,11111222,99999999' 
TABS,ioos:station:wmo:42045:1,2011-08-02T07:30:00Z,26.2168,-96.4998,2.0,352.9100198,61.24836324,-99999.0,'11111222,11111222,99999999' 
TABS,ioos:station:wmo:42045:1,2011-08-02T08:00:00Z,26.2168,-96.4998,2.0,356.5785787,59.14543516,-99999.0,'11111222,11111222,99999999' 
TABS,ioos:station:wmo:42045:1,2011-08-02T08:30:00Z,26.2168,-96.4998,2.0,358.3367107,64.41714834,-99999.0,'11111222,11111222,99999999' 
TABS,ioos:station:wmo:42045:1,2011-08-02T09:00:00Z,26.2168,-96.4998,2.0,0.400623888,64.39157243,-99999.0,'11111222,11111222,99999999' 
TABS,ioos:station:wmo:42045:1,2011-08-02T09:30:00Z,26.2168,-96.4998,2.0,0.510992195,66.1826299,-99999.0,'11111222,11111222,99999999' 
TABS,ioos:station:wmo:42045:1,2011-08-02T10:00:00Z,26.2168,-96.4998,2.0,6.344434682,62.53295611,-99999.0,'11111222,11111222,99999999' 
TABS,ioos:station:wmo:42045:1,2011-08-02T10:30:00Z,26.2168,-96.4998,2.0,3.874634149,66.30153015,-99999.0,'11111222,11111222,99999999' 
TABS,ioos:station:wmo:42045:1,2011-08-02T11:00:00Z,26.2168,-96.4998,2.0,11.00458665,54.43084603,-99999.0,'11111222,11111222,99999999' 
TABS,ioos:station:wmo:42045:1,2011-08-02T11:30:00Z,26.2168,-96.4998,2.0,5.965233747,46.38113086,-99999.0,'11111222,11111222,99999999' 
TABS,ioos:station:wmo:42045:1,2011-08-02T12:00:00Z,26.2168,-96.4998,2.0,15.89732901,52.20664804,-99999.0,'11111222,11111222,99999999' 
TABS,ioos:station:wmo:42045:1,2011-08-02T12:30:00Z,26.2168,-96.4998,2.0,16.88876093,48.98254587,-99999.0,'11111222,11111222,99999999' 
TABS,ioos:station:wmo:42045:1,2011-08-02T13:00:00Z,26.2168,-96.4998,2.0,19.49143246,45.28518742,-99999.0,'11111222,11111222,99999999' 
TABS,ioos:station:wmo:42045:1,2011-08-02T13:30:00Z,26.2168,-96.4998,2.0,22.77522676,40.3239941,-99999.0,'11111222,11111222,99999999' 
TABS,ioos:station:wmo:42045:1,2011-08-02T14:00:00Z,26.2168,-96.4998,2.0,26.33131524,40.53577802,-99999.0,'11111222,11111222,99999999' 
TABS,ioos:station:wmo:42045:1,2011-08-02T14:30:00Z,26.2168,-96.4998,2.0,27.85859192,36.05907514,-99999.0,'11111222,11111222,99999999' 
TABS,ioos:station:wmo:42045:1,2011-08-02T15:00:00Z,26.2168,-96.4998,2.0,34.25548903,28.67384871,-99999.0,'11111222,11111222,99999999' 
TABS,ioos:station:wmo:42045:1,2011-08-02T15:30:00Z,26.2168,-96.4998,2.0,36.93700819,25.66001754,-99999.0,'11111222,11111222,99999999' 
TABS,ioos:station:wmo:42045:1,2011-08-02T16:00:00Z,26.2168,-96.4998,2.0,37.76041191,20.59248649,-99999.0,'11111222,11111222,99999999' 
TABS,ioos:station:wmo:42045:1,2011-08-02T16:30:00Z,26.2168,-96.4998,2.0,42.75676475,19.8707876,-99999.0,'11111222,11111222,99999999' 
TABS,ioos:station:wmo:42045:1,2011-08-02T17:00:00Z,26.2168,-96.4998,2.0,38.48494889,17.38690599,-99999.0,'11111222,11111222,99999999' 
TABS,ioos:station:wmo:42045:1,2011-08-02T17:30:00Z,26.2168,-96.4998,2.0,90.48095949,9.530335776,-99999.0,'11133222,11111222,99999999' 
TABS,ioos:station:wmo:42045:1,2011-08-02T18:00:00Z,26.2168,-96.4998,2.0,127.5248242,5.598365833,-99999.0,'11133222,11111222,99999999' 
TABS,ioos:station:wmo:42045:1,2011-08-02T18:30:00Z,26.2168,-96.4998,2.0,161.4193406,3.734661966,-99999.0,'11133222,11111222,99999999' 
TABS,ioos:station:wmo:42045:1,2011-08-02T19:00:00Z,26.2168,-96.4998,2.0,219.8152407,7.355718864,-99999.0,'11133222,11111222,99999999' 
TABS,ioos:station:wmo:42045:1,2011-08-02T19:30:00Z,26.2168,-96.4998,2.0,220.3680374,11.47137742,-99999.0,'11111222,11111222,99999999' 
TABS,ioos:station:wmo:42045:1,2011-08-02T20:00:00Z,26.2168,-96.4998,2.0,243.473251,13.25541399,-99999.0,'11111222,11111222,99999999' 
TABS,ioos:station:wmo:42045:1,2011-08-02T20:30:00Z,26.2168,-96.4998,2.0,280.7340535,14.81928473,-99999.0,'11111222,11111222,99999999' 
TABS,ioos:station:wmo:42045:1,2011-08-02T21:00:00Z,26.2168,-96.4998,2.0,291.1074116,21.29896242,-99999.0,'11111222,11111222,99999999' 
TABS,ioos:station:wmo:42045:1,2011-08-02T21:30:00Z,26.2168,-96.4998,2.0,314.0533665,27.38291438,-99999.0,'11111222,11111222,99999999' 
TABS,ioos:station:wmo:42045:1,2011-08-02T22:00:00Z,26.2168,-96.4998,2.0,321.55261988542,41.701804517311,-99999.0,'1111122,1111122,1199999999' 
TABS,ioos:station:wmo:42045:1,2011-08-02T22:30:00Z,26.2168,-96.4998,2.0,329.63402871062,44.053524263105,-99999.0,'1111122,1111122,1199999999' 
TABS,ioos:station:wmo:42045:1,2011-08-02T23:00:00Z,26.2168,-96.4998,2.0,331.51539690332,44.325852501672,-99999.0,'1111122,1111122,1199999999' 
TABS,ioos:station:wmo:42045:1,2011-08-02T23:30:00Z,26.2168,-96.4998,2.0,331.53361737575,44.750469271283,-99999.0,'1111122,1111122,1199999999' 
TABS,ioos:station:wmo:42045:1,2011-08-03T00:00:00Z,26.2168,-96.4998,2.0,338.5185454,42.5991737,-99999.0,'11111222,11111222,99999999' 
TABS,ioos:station:wmo:42045:1,2011-08-03T00:30:00Z,26.2168,-96.4998,2.0,335.5663372,42.57287517,-99999.0,'11111222,11111222,99999999' 
TABS,ioos:station:wmo:42045:1,2011-08-03T01:00:00Z,26.2168,-96.4998,2.0,337.2246208,35.93167127,-99999.0,'11111222,11111222,99999999' 
TABS,ioos:station:wmo:42045:1,2011-08-03T01:30:00Z,26.2168,-96.4998,2.0,339.3453831,41.39049287,-99999.0,'11111222,11111222,99999999' 
TABS,ioos:station:wmo:42045:1,2011-08-03T02:00:00Z,26.2168,-96.4998,2.0,333.7947685,36.34576454,-99999.0,'11111222,11111222,99999999' 
TABS,ioos:station:wmo:42045:1,2011-08-03T02:30:00Z,26.2168,-96.4998,2.0,334.7970319,43.28013979,-99999.0,'11111222,11111222,99999999' 
TABS,ioos:station:wmo:42045:1,2011-08-03T03:00:00Z,26.2168,-96.4998,2.0,337.5551351,43.63558754,-99999.0,'11111222,11111222,99999999' 
TABS,ioos:station:wmo:42045:1,2011-08-03T03:30:00Z,26.2168,-96.4998,2.0,336.6352788,39.33563397,-99999.0,'11111222,11111222,99999999' 
TABS,ioos:station:wmo:42045:1,2011-08-03T04:00:00Z,26.2168,-96.4998,2.0,340.2723205,43.16343128,-99999.0,'11111222,11111222,99999999' 
TABS,ioos:station:wmo:42045:1,2011-08-03T04:30:00Z,26.2168,-96.4998,2.0,337.3955723,40.66384758,-99999.0,'11111222,11111222,99999999' 
TABS,ioos:station:wmo:42045:1,2011-08-03T05:00:00Z,26.2168,-96.4998,2.0,345.3179525,44.74096557,-99999.0,'11111222,11111222,99999999' 
TABS,ioos:station:wmo:42045:1,2011-08-03T05:30:00Z,26.2168,-96.4998,2.0,349.3662405,41.72661141,-99999.0,'11111222,11111222,99999999' 
TABS,ioos:station:wmo:42045:1,2011-08-03T06:00:00Z,26.2168,-96.4998,2.0,348.0462942,47.45918036,-99999.0,'11111222,11111222,99999999' 
TABS,ioos:station:wmo:42045:1,2011-08-03T06:30:00Z,26.2168,-96.4998,2.0,346.9835494,42.79976168,-99999.0,'11111222,11111222,99999999' 
TABS,ioos:station:wmo:42045:1,2011-08-03T07:00:00Z,26.2168,-96.4998,2.0,341.488501,47.18122508,-99999.0,'11111222,11111222,99999999' 
TABS,ioos:station:wmo:42045:1,2011-08-03T07:30:00Z,26.2168,-96.4998,2.0,344.6760952,45.86052006,-99999.0,'11111222,11111222,99999999' 
TABS,ioos:station:wmo:42045:1,2011-08-03T08:00:00Z,26.2168,-96.4998,2.0,345.1871672,47.40551972,-99999.0,'11111222,11111222,99999999' 
TABS,ioos:station:wmo:42045:1,2011-08-03T08:30:00Z,26.2168,-96.4998,2.0,342.0304314,43.23924722,-99999.0,'11111222,11111222,99999999' 
TABS,ioos:station:wmo:42045:1,2011-08-03T09:00:00Z,26.2168,-96.4998,2.0,347.0079119,37.5410442,-99999.0,'11111222,11111222,99999999' 
TABS,ioos:station:wmo:42045:1,2011-08-03T09:30:00Z,26.2168,-96.4998,2.0,348.0393929,43.3307339,-99999.0,'11111222,11111222,99999999' 
TABS,ioos:station:wmo:42045:1,2011-08-03T10:00:00Z,26.2168,-96.4998,2.0,347.5729685,42.8438327,-99999.0,'11111222,11111222,99999999' 
TABS,ioos:station:wmo:42045:1,2011-08-03T10:30:00Z,26.2168,-96.4998,2.0,347.4776131,40.21673781,-99999.0,'11111222,11111222,99999999' 
TABS,ioos:station:wmo:42045:1,2011-08-03T11:00:00Z,26.2168,-96.4998,2.0,354.569887,38.04072686,-99999.0,'11111222,11111222,99999999' 
TABS,ioos:station:wmo:42045:1,2011-08-03T11:30:00Z,26.2168,-96.4998,2.0,355.0738134,28.06367225,-99999.0,'11111222,11111222,99999999' 
TABS,ioos:station:wmo:42045:1,2011-08-03T12:00:00Z,26.2168,-96.4998,2.0,2.754578248,32.04702326,-99999.0,'11111222,11111222,99999999' 
TABS,ioos:station:wmo:42045:1,2011-08-03T12:30:00Z,26.2168,-96.4998,2.0,3.675237932,29.33031367,-99999.0,'11111222,11111222,99999999' 
TABS,ioos:station:wmo:42045:1,2011-08-03T13:00:00Z,26.2168,-96.4998,2.0,11.64532767,25.81128629,-99999.0,'11111222,11111222,99999999' 
TABS,ioos:station:wmo:42045:1,2011-08-03T13:30:00Z,26.2168,-96.4998,2.0,17.37830952,21.26044684,-99999.0,'11111222,11111222,99999999' 
TABS,ioos:station:wmo:42045:1,2011-08-03T14:00:00Z,26.2168,-96.4998,2.0,11.09390753,17.67018959,-99999.0,'11111222,11111222,99999999' 
TABS,ioos:station:wmo:42045:1,2011-08-03T14:30:00Z,26.2168,-96.4998,2.0,12.58842092,19.86758667,-99999.0,'11111222,11111222,99999999' 
TABS,ioos:station:wmo:42045:1,2011-08-03T15:00:00Z,26.2168,-96.4998,2.0,22.36693817,11.66780613,-99999.0,'11111222,11111222,99999999' 
TABS,ioos:station:wmo:42045:1,2011-08-03T15:30:00Z,26.2168,-96.4998,2.0,44.47925007,12.4455936,-99999.0,'11111222,11111222,99999999' 
TABS,ioos:station:wmo:42045:1,2011-08-03T16:00:00Z,26.2168,-96.4998,2.0,23.9626434,11.03072074,-99999.0,'11111222,11111222,99999999' 
TABS,ioos:station:wmo:42045:1,2011-08-03T16:30:00Z,26.2168,-96.4998,2.0,55.7132032,4.260328626,-99999.0,'11133222,11111222,99999999' 
TABS,ioos:station:wmo:42045:1,2011-08-03T17:00:00Z,26.2168,-96.4998,2.0,31.02382725,6.558109484,-99999.0,'11133222,11111222,99999999' 
TABS,ioos:station:wmo:42045:1,2011-08-03T17:30:00Z,26.2168,-96.4998,2.0,14.68591451,7.060665691,-99999.0,'11133222,11111222,99999999' 
TABS,ioos:station:wmo:42045:1,2011-08-03T18:00:00Z,26.2168,-96.4998,2.0,339.0736361,7.419393506,-99999.0,'11133222,11111222,99999999' 
TABS,ioos:station:wmo:42045:1,2011-08-03T18:30:00Z,26.2168,-96.4998,2.0,320.2880098,6.291740618,-99999.0,'11133222,11111222,99999999' 
TABS,ioos:station:wmo:42045:1,2011-08-03T19:00:00Z,26.2168,-96.4998,2.0,310.7324324,7.126184112,-99999.0,'11133222,11111222,99999999' 
TABS,ioos:station:wmo:42045:1,2011-08-03T19:30:00Z,26.2168,-96.4998,2.0,296.9843835,4.892647545,-99999.0,'11133222,11111222,99999999' 
TABS,ioos:station:wmo:42045:1,2011-08-03T20:00:00Z,26.2168,-96.4998,2.0,316.5784265,9.500047368,-99999.0,'11133222,11111222,99999999' 
TABS,ioos:station:wmo:42045:1,2011-08-03T20:30:00Z,26.2168,-96.4998,2.0,325.9011364,6.992174197,-99999.0,'11133222,11111222,99999999' 
TABS,ioos:station:wmo:42045:1,2011-08-03T21:00:00Z,26.2168,-96.4998,2.0,319.09787361021,11.775147557462,-99999.0,'1111122,1111122,1199999999' 
TABS,ioos:station:wmo:42045:1,2011-08-03T21:30:00Z,26.2168,-96.4998,2.0,324.50055337196,10.452990002865,-99999.0,'1111122,1111122,1199999999' 
TABS,ioos:station:wmo:42045:1,2011-08-03T22:00:00Z,26.2168,-96.4998,2.0,305.61304404757,11.488764076262,-99999.0,'1111122,1111122,1199999999' 
TABS,ioos:station:wmo:42045:1,2011-08-03T22:30:00Z,26.2168,-96.4998,2.0,307.56859202883,13.941036546828,-99999.0,'1111122,1111122,1199999999' 
TABS,ioos:station:wmo:42045:1,2011-08-03T23:00:00Z,26.2168,-96.4998,2.0,309.77010847279,12.411897518107,-99999.0,'1111122,1111122,1199999999' 
TABS,ioos:station:wmo:42045:1,2011-08-03T23:30:00Z,26.2168,-96.4998,2.0,304.88711856987,12.081233380744,-99999.0,'1111122,1111122,1199999999' 
TABS,ioos:station:wmo:42045:1,2011-08-04T00:00:00Z,26.2168,-96.4998,2.0,297.8859978,12.80712692,-99999.0,'11111222,11111222,99999999' 
TABS,ioos:station:wmo:42045:1,2011-08-04T00:30:00Z,26.2168,-96.4998,2.0,309.4550113,13.17140084,-99999.0,'11111222,11111222,99999999' 
TABS,ioos:station:wmo:42045:1,2011-08-04T01:00:00Z,26.2168,-96.4998,2.0,308.0582415,12.63671635,-99999.0,'11111222,11111222,99999999' 
TABS,ioos:station:wmo:42045:1,2011-08-04T01:30:00Z,26.2168,-96.4998,2.0,299.462624,14.33362829,-99999.0,'11111222,11111222,99999999' 
TABS,ioos:station:wmo:42045:1,2011-08-04T02:00:00Z,26.2168,-96.4998,2.0,310.473562,11.64702537,-99999.0,'11111222,11111222,99999999' 
TABS,ioos:station:wmo:42045:1,2011-08-04T02:30:00Z,26.2168,-96.4998,2.0,327.8213743,21.34951522,-99999.0,'11111222,11111222,99999999' 
TABS,ioos:station:wmo:42045:1,2011-08-04T03:00:00Z,26.2168,-96.4998,2.0,335.0729081,19.71675683,-99999.0,'11111222,11111222,99999999' 
TABS,ioos:station:wmo:42045:1,2011-08-04T03:30:00Z,26.2168,-96.4998,2.0,339.3694193,19.72496134,-99999.0,'11111222,11111222,99999999' 
TABS,ioos:station:wmo:42045:1,2011-08-04T04:00:00Z,26.2168,-96.4998,2.0,350.5810303,17.4756173,-99999.0,'11111222,11111222,99999999' 
TABS,ioos:station:wmo:42045:1,2011-08-04T04:30:00Z,26.2168,-96.4998,2.0,1.066383514,16.12279132,-99999.0,'11111222,11111222,99999999' 
TABS,ioos:station:wmo:42045:1,2011-08-04T05:00:00Z,26.2168,-96.4998,2.0,3.848964213,17.57964732,-99999.0,'11111222,11111222,99999999' 
TABS,ioos:station:wmo:42045:1,2011-08-04T05:30:00Z,26.2168,-96.4998,2.0,359.896851,16.63002706,-99999.0,'11111222,11144222,99999999' 
TABS,ioos:station:wmo:42045:1,2011-08-04T06:00:00Z,26.2168,-96.4998,2.0,10.10873536,17.4915208,-99999.0,'11111222,11111222,99999999' 
TABS,ioos:station:wmo:42045:1,2011-08-04T06:30:00Z,26.2168,-96.4998,2.0,18.92553328,21.42837838,-99999.0,'11111222,11111222,99999999' 
TABS,ioos:station:wmo:42045:1,2011-08-04T07:00:00Z,26.2168,-96.4998,2.0,15.37777224,20.51443394,-99999.0,'11111222,11111222,99999999' 
TABS,ioos:station:wmo:42045:1,2011-08-04T07:30:00Z,26.2168,-96.4998,2.0,25.65010003,18.4812229,-99999.0,'11111222,11111222,99999999' 
TABS,ioos:station:wmo:42045:1,2011-08-04T08:00:00Z,26.2168,-96.4998,2.0,29.29348968,18.41476853,-99999.0,'11111222,11111222,99999999' 
TABS,ioos:station:wmo:42045:1,2011-08-04T08:30:00Z,26.2168,-96.4998,2.0,34.48158273,15.26125814,-99999.0,'11111222,11111222,99999999' 
TABS,ioos:station:wmo:42045:1,2011-08-04T09:00:00Z,26.2168,-96.4998,2.0,35.39702989,17.50578476,-99999.0,'11111222,11111222,99999999' 
TABS,ioos:station:wmo:42045:1,2011-08-04T09:30:00Z,26.2168,-96.4998,2.0,26.96270313,14.18148441,-99999.0,'11111222,11111222,99999999' 
TABS,ioos:station:wmo:42045:1,2011-08-04T10:00:00Z,26.2168,-96.4998,2.0,30.79449029,13.34093325,-99999.0,'11111222,11111222,99999999' 
TABS,ioos:station:wmo:42045:1,2011-08-04T10:30:00Z,26.2168,-96.4998,2.0,28.57568428,14.40467285,-99999.0,'11111222,11111222,99999999' 
TABS,ioos:station:wmo:42045:1,2011-08-04T11:00:00Z,26.2168,-96.4998,2.0,5.630880049,10.70163539,-99999.0,'11111222,11111222,99999999' 
TABS,ioos:station:wmo:42045:1,2011-08-04T11:30:00Z,26.2168,-96.4998,2.0,41.07361633,13.42411263,-99999.0,'11111222,11111222,99999999' 
TABS,ioos:station:wmo:42045:1,2011-08-04T12:00:00Z,26.2168,-96.4998,2.0,43.9000936,18.4164546,-99999.0,'11111222,11111222,99999999' 
TABS,ioos:station:wmo:42045:1,2011-08-04T12:30:00Z,26.2168,-96.4998,2.0,44.61189835,17.74171638,-99999.0,'11111222,11111222,99999999' 
TABS,ioos:station:wmo:42045:1,2011-08-04T13:00:00Z,26.2168,-96.4998,2.0,55.46513516,17.868836,-99999.0,'11111222,11111222,99999999' 
TABS,ioos:station:wmo:42045:1,2011-08-04T13:30:00Z,26.2168,-96.4998,2.0,53.44261978,14.30421267,-99999.0,'11111222,11111222,99999999' 
TABS,ioos:station:wmo:42045:1,2011-08-04T14:00:00Z,26.2168,-96.4998,2.0,66.14958186,16.61921779,-99999.0,'11111222,11111222,99999999' 
TABS,ioos:station:wmo:42045:1,2011-08-04T14:30:00Z,26.2168,-96.4998,2.0,68.50457098,13.56338085,-99999.0,'11111222,11111222,99999999' 
TABS,ioos:station:wmo:42045:1,2011-08-04T15:00:00Z,26.2168,-96.4998,2.0,71.23647914,18.7462903,-99999.0,'11111222,11111222,99999999' 
TABS,ioos:station:wmo:42045:1,2011-08-04T15:30:00Z,26.2168,-96.4998,2.0,82.05081794,16.12494341,-99999.0,'11111222,11111222,99999999' 